Wind_Speed
11 10 8 6 5 6 7 6 6 7 6 7 7 7 7 7 8 9 11 11 10 9 10 12 12 12 11 11 11 12 12 13 13 13 12 12 14 14 15 14 13 14 14
9 11 9 7 6 6 6 6 3 5 3 4 5 4 4 5 6 6 9 11 11 10 9 10 11 11 11 13 14 14 14 15 16 17 13 10 11 11 12 12 11 12 14
6 10 10 8 7 7 6 5 4 4 4 5 6 4 3 4 6 5 5 6 9 10 10 9 10 10 11 13 15 17 16 14 11 10 12 9 8 8 7 8 9 9 12
7 8 9 9 8 7 7 6 5 5 5 5 5 5 5 6 7 7 6 7 7 7 9 10 9 9 10 12 15 16 14 12 14 14 8 7 6 5 5 5 6 7 8
7 7 10 8 8 8 7 6 5 5 4 4 4 5 6 7 7 7 7 7 7 6 5 7 7 9 9 12 13 13 10 10 11 7 5 3 4 5 4 3 4 5 6
13 9 8 7 8 9 9 7 6 5 4 4 3 4 6 7 7 7 7 6 4 4 4 5 5 7 8 10 11 10 8 10 6 4 1 1 3 4 3 2 3 4 4
16 12 12 11 10 10 10 8 7 6 4 3 3 4 4 6 6 7 7 6 4 3 2 3 5 5 7 9 10 9 6 6 5 2 2 1 1 2 3 3 3 4 4
17 16 14 13 13 10 10 10 9 8 6 4 3 3 4 5 5 6 6 5 4 4 3 2 3 5 6 8 9 8 7 6 4 2 2 2 1 3 2 2 2 3 3
20 17 16 14 12 14 14 13 12 11 9 7 6 4 4 4 4 4 5 5 4 3 3 2 3 5 5 6 9 9 8 8 4 5 3 5 5 3 2 3 4 3 2
20 17 18 16 14 10 16 17 16 14 12 11 9 7 6 5 4 3 4 5 4 3 2 2 2 3 5 6 8 9 9 9 8 5 5 2 3 4 3 1 2 2 3
20 20 19 17 17 15 12 19 19 18 15 13 11 10 9 8 6 3 1 4 3 2 1 2 2 3 4 6 8 10 10 10 8 7 7 9 6 2 4 5 4 6 5
23 22 22 20 19 19 17 14 22 21 19 16 14 13 13 12 9 6 2 1 2 1 1 2 2 3 3 4 6 7 8 10 10 9 8 8 7 5 4 4 6 5 5
25 23 24 22 21 23 23 18 17 21 21 19 17 16 17 16 13 9 6 3 1 1 1 2 3 4 4 5 6 8 9 10 10 10 9 8 7 7 5 4 6 6 7
25 26 26 25 23 25 26 22 21 18 19 23 21 19 21 19 15 13 10 7 5 3 2 3 4 5 6 7 7 8 10 10 10 9 8 7 7 8 7 7 8 8 9
25 28 27 28 25 24 28 26 24 23 22 22 24 24 24 21 19 17 15 12 9 6 5 3 4 6 7 7 7 8 8 9 10 9 8 8 8 9 9 9 10 11 12
23 25 30 31 29 25 28 30 29 28 27 26 25 23 24 24 22 22 20 16 12 10 7 6 6 6 7 8 8 9 9 10 10 10 9 9 8 9 10 9 9 10 11
26 26 27 30 31 31 31 33 34 33 32 30 26 26 28 28 27 25 22 19 16 13 11 10 8 8 9 9 9 10 10 9 10 10 9 8 8 8 9 9 8 9 9
20 20 22 32 34 34 33 34 34 36 36 34 33 33 33 31 30 28 27 23 20 18 15 13 11 11 11 11 11 11 10 9 10 11 10 9 8 8 8 8 7 8 9
11 1 5 5 29 36 31 37 36 35 36 36 35 34 34 34 33 33 31 27 25 23 20 17 15 14 14 13 12 13 12 12 10 11 12 10 10 9 7 8 8 10 10
26 20 14 21 11 9 30 34 35 32 34 35 36 37 36 36 36 36 36 32 31 28 25 22 19 17 16 15 15 15 15 14 13 13 14 13 12 10 8 7 8 9 10
29 27 29 27 22 18 8 13 25 33 37 38 39 39 39 39 37 39 39 38 36 34 29 25 22 21 19 18 17 16 16 16 15 13 12 13 14 11 11 10 10 8 8
34 35 32 30 29 26 22 14 14 20 34 42 42 43 41 40 38 37 38 41 40 38 33 30 28 25 22 20 18 15 9 14 17 14 12 10 11 11 11 12 11 12 13
37 35 36 34 32 29 30 27 17 14 14 25 41 39 41 43 42 40 39 39 42 42 39 35 31 28 26 24 21 15 7 9 9 14 13 11 12 12 11 12 12 13 14
35 30 29 33 34 33 32 32 29 27 28 24 22 40 45 47 46 43 41 40 40 44 43 39 34 31 28 27 24 23 22 12 8 7 14 14 15 13 13 13 15 14 13
29 31 27 27 30 30 29 27 27 29 33 29 28 27 40 49 49 46 44 43 41 43 44 42 38 36 33 30 29 24 23 22 20 16 10 18 19 16 17 17 17 17 19
27 28 29 30 28 27 26 25 25 27 32 37 34 30 32 43 50 49 47 47 45 43 44 44 42 39 35 32 30 27 26 25 24 23 21 17 20 21 21 20 19 17 15
Wind_Direction
202 194 188 182 154 143 149 132 123 135 125 108 101 97 99 84 80 68 66 72 73 86 74 71 73 77 74 71 72 78 87 93 92 88 88 101 102 98 97 91 85 77 71
190 189 194 188 170 155 152 157 143 108 110 117 103 92 72 71 62 79 86 75 74 77 86 73 70 72 73 74 82 94 98 95 94 92 79 94 105 106 100 94 82 69 59
196 189 196 190 181 163 152 154 135 106 101 105 107 92 72 64 69 81 96 97 83 79 80 81 79 77 75 81 94 104 101 95 93 95 81 86 84 95 106 92 78 60 56
208 184 199 188 187 173 158 148 131 118 112 102 91 83 76 76 82 84 87 90 100 90 87 82 87 88 86 88 103 114 106 95 86 99 80 69 57 87 99 91 65 65 49
203 204 182 184 196 189 175 167 162 142 128 110 100 93 89 86 84 82 81 93 102 104 89 92 89 93 97 100 111 124 119 97 95 85 86 13 40 80 87 72 47 39 37
198 225 212 227 211 199 191 183 178 169 153 139 118 100 92 85 76 68 72 76 84 103 106 103 103 102 108 114 124 135 128 109 104 121 156 110 63 84 71 44 357 355 18
203 218 239 242 238 204 199 200 190 190 179 167 141 118 103 88 74 64 60 65 65 69 98 118 121 122 116 127 134 145 148 125 122 147 186 211 205 83 59 31 348 331 343
216 223 240 255 251 232 212 214 203 203 202 203 189 153 131 110 82 64 59 57 59 59 67 117 140 142 147 150 153 163 166 136 155 147 205 331 288 297 292 278 305 327 315
224 226 239 259 258 253 222 220 212 209 211 210 205 195 177 153 115 72 61 57 57 59 66 94 142 156 164 149 160 176 183 188 189 154 175 109 70 13 338 272 266 277 303
220 239 247 261 265 277 237 219 218 214 213 214 215 210 205 196 167 109 75 63 61 68 78 98 133 151 160 158 163 178 191 214 229 215 258 233 160 212 167 72 145 234 261
223 242 247 257 254 269 277 238 223 219 220 219 221 221 220 216 202 189 56 55 59 74 114 147 165 175 178 175 170 183 191 223 234 231 251 285 275 200 128 176 195 201 212
217 230 244 254 253 256 258 269 236 226 224 224 224 225 228 226 219 218 226 19 33 47 147 190 193 193 196 177 178 194 191 222 233 250 265 273 271 264 264 230 215 226 229
221 227 235 248 256 253 253 262 249 233 231 229 226 228 232 234 224 226 227 239 291 352 267 213 207 210 203 196 184 198 207 226 239 254 264 270 264 258 260 238 248 250 231
230 234 233 234 244 255 250 261 267 253 245 238 233 228 234 239 234 231 233 237 247 252 253 224 219 216 214 210 201 196 207 231 242 255 267 275 272 264 258 250 250 254 260
243 245 237 229 230 244 252 261 255 256 261 250 240 229 235 235 238 235 236 237 247 264 285 279 252 230 223 220 225 229 220 234 246 251 260 263 267 269 266 258 252 253 254
245 250 243 234 235 237 243 253 254 256 262 263 251 247 244 242 239 240 239 240 244 253 262 270 270 258 239 231 223 229 239 243 249 256 257 262 261 260 264 265 262 263 260
244 246 248 250 247 238 237 240 246 252 256 262 255 255 254 249 244 243 243 242 241 247 250 256 259 264 260 249 235 230 232 241 253 257 262 261 266 263 264 268 266 265 267
262 261 264 249 250 244 230 236 241 243 249 252 253 254 258 253 250 245 243 244 244 245 248 251 257 259 257 253 247 244 237 244 258 267 267 273 270 267 267 264 270 270 268
72 260 323 300 232 238 246 233 237 243 243 248 248 255 259 254 254 250 246 245 244 245 247 250 254 255 255 253 248 247 252 260 257 268 273 270 277 279 278 285 275 267 268
42 54 60 60 63 247 232 236 235 239 245 247 249 254 258 257 255 253 249 246 245 245 246 246 249 251 251 250 244 241 244 252 261 271 275 268 270 272 286 289 288 275 270
28 27 29 29 30 45 19 261 261 252 241 244 250 255 254 258 260 252 249 247 245 246 249 249 248 248 249 248 248 248 249 249 249 258 265 266 267 273 284 295 298 286 296
13 9 9 12 14 15 12 4 320 282 256 254 257 254 252 257 262 261 252 247 247 247 244 244 245 247 243 241 241 242 245 241 242 240 250 244 243 262 270 292 296 305 308
11 7 357 353 352 349 350 351 342 303 288 274 250 248 253 258 261 264 261 251 249 248 246 247 246 246 246 241 238 231 215 226 219 230 233 243 248 265 265 269 294 293 285
6 2 0 357 349 341 337 340 342 340 334 307 288 256 261 261 259 259 261 255 252 251 249 247 246 245 242 242 236 233 234 234 206 213 222 226 234 247 255 274 274 279 289
6 5 357 358 354 349 341 331 333 335 328 324 292 288 263 257 258 254 257 256 252 253 252 249 245 241 241 240 239 237 231 235 235 232 217 219 227 233 251 258 269 275 281
3 356 356 351 347 345 345 333 325 327 330 320 315 300 291 265 253 250 249 253 252 254 253 251 248 244 243 240 240 238 237 234 236 234 233 225 231 239 253 265 270 274 277
Height
1550 1551 1551 1552 1552 1552 1553 1553 1554 1554 1554 1555 1556 1556 1556 1556 1556 1556 1556 1555 1555 1555 1555 1555 1555 1555 1555 1555 1555 1555 1555 1555 1556 1556 1557 1556 1556 1556 1556 1556 1556 1555 1555
1548 1549 1550 1551 1551 1552 1553 1553 1554 1554 1555 1555 1555 1556 1556 1556 1556 1556 1556 1556 1556 1556 1556 1556 1556 1556 1556 1556 1557 1557 1556 1557 1557 1558 1558 1558 1558 1558 1558 1558 1557 1557 1556
1547 1548 1549 1550 1551 1552 1552 1553 1554 1554 1554 1554 1554 1555 1555 1555 1555 1555 1556 1556 1557 1556 1556 1557 1557 1558 1558 1558 1558 1558 1558 1558 1558 1559 1559 1560 1560 1560 1560 1559 1558 1558 1557
1546 1547 1548 1549 1551 1551 1552 1553 1553 1554 1554 1554 1554 1554 1555 1555 1555 1555 1555 1556 1557 1557 1557 1557 1558 1559 1559 1559 1560 1560 1560 1559 1559 1560 1561 1562 1562 1561 1560 1560 1559 1559 1558
1545 1546 1547 1548 1550 1551 1551 1552 1553 1553 1554 1554 1554 1554 1555 1555 1555 1555 1555 1556 1556 1557 1557 1558 1559 1559 1560 1560 1560 1561 1561 1561 1561 1562 1563 1562 1562 1562 1561 1561 1560 1560 1560
1543 1544 1546 1547 1548 1549 1550 1551 1553 1554 1554 1554 1554 1554 1554 1555 1555 1555 1555 1555 1556 1556 1557 1557 1558 1559 1560 1560 1561 1561 1562 1563 1564 1564 1562 1562 1562 1562 1562 1562 1561 1560 1560
1543 1544 1546 1546 1547 1548 1550 1551 1552 1553 1554 1555 1555 1554 1555 1555 1555 1555 1555 1555 1555 1555 1556 1556 1557 1558 1559 1560 1561 1561 1561 1562 1563 1564 1563 1563 1562 1562 1561 1561 1561 1561 1560
1543 1544 1545 1546 1546 1547 1548 1550 1551 1552 1552 1553 1554 1554 1554 1555 1555 1555 1554 1554 1554 1554 1555 1555 1555 1556 1557 1559 1560 1560 1561 1561 1561 1563 1563 1562 1561 1561 1561 1561 1561 1560 1560
1540 1541 1543 1545 1546 1546 1546 1547 1548 1549 1550 1551 1551 1552 1553 1554 1554 1554 1554 1554 1553 1553 1553 1554 1554 1555 1555 1556 1558 1559 1559 1559 1560 1559 1560 1560 1560 1560 1559 1559 1559 1560 1559
1539 1540 1541 1542 1544 1543 1544 1544 1546 1547 1548 1548 1549 1550 1551 1552 1553 1553 1553 1553 1553 1552 1552 1553 1553 1554 1554 1555 1556 1557 1557 1556 1557 1557 1557 1558 1559 1558 1559 1558 1558 1558 1559
1537 1537 1537 1538 1540 1541 1542 1542 1543 1544 1546 1547 1548 1548 1549 1550 1551 1552 1551 1551 1552 1552 1551 1551 1552 1552 1553 1553 1554 1554 1555 1554 1554 1555 1556 1556 1555 1555 1557 1557 1557 1556 1557
1534 1533 1533 1534 1536 1538 1539 1540 1541 1542 1543 1545 1546 1546 1547 1548 1549 1550 1550 1550 1550 1550 1550 1550 1550 1551 1551 1552 1552 1552 1553 1552 1553 1553 1554 1554 1553 1553 1553 1554 1554 1555 1555
1531 1533 1531 1532 1533 1534 1535 1538 1538 1540 1541 1543 1543 1544 1544 1546 1547 1547 1548 1548 1549 1549 1549 1549 1549 1549 1549 1550 1550 1551 1551 1551 1551 1551 1552 1552 1551 1551 1551 1552 1552 1553 1553
1531 1530 1531 1531 1532 1532 1531 1533 1536 1538 1540 1540 1542 1542 1540 1542 1543 1545 1546 1546 1547 1547 1547 1548 1548 1547 1547 1548 1548 1549 1548 1549 1549 1549 1549 1549 1549 1549 1549 1550 1550 1551 1551
1528 1528 1528 1527 1528 1528 1528 1529 1531 1533 1536 1538 1538 1539 1538 1540 1540 1542 1543 1544 1544 1544 1544 1545 1545 1545 1546 1546 1546 1547 1547 1546 1547 1547 1547 1547 1547 1546 1546 1547 1547 1548 1548
1522 1522 1522 1522 1523 1523 1524 1527 1527 1529 1532 1535 1536 1537 1537 1538 1538 1539 1540 1541 1541 1541 1542 1542 1543 1543 1543 1543 1544 1544 1544 1544 1544 1544 1545 1544 1544 1544 1544 1544 1544 1544 1545
1514 1517 1518 1519 1519 1519 1517 1520 1523 1524 1526 1528 1530 1533 1535 1535 1536 1537 1537 1538 1539 1539 1539 1539 1540 1540 1540 1541 1541 1542 1542 1542 1541 1542 1541 1542 1541 1541 1542 1542 1542 1542 1542
1514 1513 1515 1510 1511 1513 1514 1515 1514 1516 1518 1521 1525 1529 1531 1533 1533 1534 1534 1536 1537 1537 1537 1536 1537 1537 1538 1538 1538 1538 1539 1539 1539 1538 1539 1538 1538 1538 1539 1539 1539 1539 1538
1508 1509 1510 1510 1513 1513 1511 1512 1512 1512 1513 1515 1518 1522 1525 1527 1530 1530 1531 1533 1533 1533 1533 1534 1534 1534 1535 1535 1536 1535 1535 1535 1536 1536 1536 1536 1535 1535 1535 1535 1536 1536 1536
1509 1509 1510 1508 1508 1510 1514 1514 1510 1511 1511 1512 1512 1514 1518 1521 1524 1525 1527 1528 1528 1529 1529 1530 1530 1531 1532 1532 1532 1532 1533 1532 1532 1532 1533 1533 1533 1533 1533 1533 1533 1532 1532
1507 1507 1507 1508 1508 1508 1510 1513 1513 1511 1505 1506 1506 1507 1510 1513 1516 1518 1521 1523 1523 1523 1525 1526 1526 1526 1527 1528 1529 1529 1529 1529 1529 1530 1530 1530 1529 1530 1529 1530 1530 1529 1529
1510 1508 1507 1507 1509 1509 1509 1510 1510 1508 1507 1503 1500 1500 1502 1506 1509 1511 1514 1516 1518 1519 1521 1521 1521 1522 1523 1523 1524 1525 1525 1526 1525 1526 1527 1527 1527 1527 1527 1527 1526 1525 1525
1511 1509 1507 1506 1505 1505 1506 1505 1503 1502 1502 1503 1502 1497 1499 1499 1500 1502 1505 1509 1512 1513 1514 1515 1516 1517 1517 1518 1520 1522 1520 1519 1520 1521 1523 1524 1524 1524 1525 1524 1524 1523 1522
1514 1513 1511 1509 1505 1503 1502 1500 1501 1501 1499 1499 1499 1499 1494 1492 1493 1495 1496 1500 1504 1506 1508 1510 1511 1511 1512 1512 1514 1515 1516 1516 1517 1518 1519 1520 1521 1521 1521 1521 1520 1520 1519
1517 1514 1512 1510 1507 1505 1503 1501 1498 1496 1496 1493 1491 1489 1489 1489 1486 1487 1489 1491 1494 1498 1501 1504 1505 1504 1505 1507 1507 1509 1511 1512 1513 1513 1514 1515 1517 1516 1516 1516 1516 1515 1515
1517 1515 1513 1510 1507 1504 1501 1500 1496 1493 1490 1487 1486 1483 1481 1481 1480 1478 1481 1483 1485 1489 1492 1496 1499 1501 1500 1501 1501 1502 1504 1505 1505 1507 1509 1511 1512 1512 1512 1512 1511 1511 1510